Skip Page Navigation
NASA JPL Caltech
NASA Logo - Jet Propulsion Laboratory + View the NASA Portal
+ Center for Near-Earth Object Studies
JPL Home Earth Solar System Stars & Galaxies Technology
JPL Solar System Dynamics
BODIES ORBITS EPHEMERIDES TOOLS PHYSICAL DATA DISCOVERY FAQ SITE MAP
IMPORTANT: The SSD Announcement email list is now available. Major changes are coming in the near future, including possible hostname and/or URL changes. To be notified of such changes, subscribe to this email list.

Please visit this page for more details.


JPL Small-Body Database Browser
Search: [ help ]  
6374 Beslan (1986 PY4)
Classification: Main-belt Asteroid          SPK-ID: 2006374
Ephemeris | Orbit Diagram | Orbital Elements | Mission Design | Physical Parameters | Discovery Circumstances ]

[ show orbit diagram ]
Orbital Elements at Epoch 2459000.5 (2020-May-31.0) TDB
Reference: JPL 32 (heliocentric ecliptic J2000)
 Element Value Uncertainty (1-sigma)   Units 
e .07694249503106669 3.4306e-08  
a 3.168155833014254 2.1132e-08 au
q 2.924390018574909 1.0748e-07 au
i 9.734158892625336 3.9385e-06 deg
node 163.4226625178297 2.1648e-05 deg
peri 216.1310632549317 3.244e-05 deg
M 319.2210513385279 2.4205e-05 deg
tp 2459233.814512719934
(2021-Jan-19.31451272)
0.00013866 TDB
period 2059.720207022724
5.64
2.0608e-05
5.642e-08
d
yr
n .1747810206321039 1.7488e-09 deg/d
Q 3.411921647453598 2.2758e-08 au
  Orbit Determination Parameters
   # obs. used (total)      2117  
   data-arc span      12127 days (33.20 yr)  
   first obs. used      1986-08-08  
   last obs. used      2019-10-21  
   planetary ephem.      DE431  
   SB-pert. ephem.      SB431-N16  
   condition code      0  
   norm. resid. RMS      .46506  
   source      ORB  
   producer      Otto Matic  
   solution date      2020-Feb-22 18:01:27  

Additional Information
 Earth MOID = 1.93151 au 
 Jupiter MOID = 2.01993 au 
 T_jup = 3.176 
[ show covariance matrix ]

Ephemeris | Orbit Diagram | Orbital Elements | Mission Design | Physical Parameters | Discovery Circumstances ]

Physical Parameter Table
Parameter Symbol Value Units Sigma Reference Notes
absolute magnitude H 12.2   n/a MPO452257  
diameter diameter 16.233 km 5.490 urn:nasa:pds:neowise_diameters_albedos::2.0[mainbelt] (http://adsabs.harvard.edu/abs/2016AJ....152...63N)  
geometric albedo albedo 0.048   0.023 urn:nasa:pds:neowise_diameters_albedos::2.0[mainbelt] (http://adsabs.harvard.edu/abs/2015ApJ...814..117N)  

6374 Beslan           Discovered 1986 Aug. 8 by L. I. Chernykh at the Crimean Astrophysical Observatory.
The North Ossetian town of Beslan was the site of an unprovoked and unspeakable attack on schoolchildren in Sept. 2004.
NOTE: some special characters may not display properly (any characters within {} are an attempt to place the proper accent above a character)
Reference: 20041126/MPCPages.arcLast Updated: 2004-12-06

Alternate Designations
 1986 PY4 = 1992 QK2 = 1993 XS2 
Ephemeris | Orbit Diagram | Orbital Elements | Mission Design | Physical Parameters | Discovery Circumstances ]
ABOUT SSD CREDITS/AWARDS PRIVACY/COPYRIGHT GLOSSARY LINKS
FirstGov 2020-Jun-06 21:39 UT
(server date/time)  
NASA Home Page
Site Manager:   Ryan S. Park
Webmaster  Alan B. Chamberlin